DL7GAI-7 Weather Reports


time (UTC)temp
F
wind
direction
speed
knots
gust
knots
rain 1hr
in
rain 24hr
in
rain mn
in
humidity
%
barometer
mb
20260509203600 57 0 4.3 6.1 0.00 0.00 0.00 69 1012.7
20260509202220 57 0 4.3 6.1 0.00 0.00 0.00 69 1012.7
20260509200827 57 0 4.3 6.1 0.00 0.00 0.00 69 1012.7
20260509195535 59 0 3.5 5.2 0.00 0.00 0.00 70 1012.6
20260509194130 59 0 3.5 5.2 0.00 0.00 0.00 70 1012.6
20260509192740 62 0 1.7 2.6 0.00 0.00 0.00 63 1012.2
20260509191330 62 0 1.7 2.6 0.00 0.00 0.00 63 1012.2
20260509185949 67 0 0.0 2.6 0.00 0.00 0.00 50 1011.6
20260509184627 67 0 0.0 2.6 0.00 0.00 0.00 50 1011.6
20260509183315 74 0 0.0 2.6 0.00 0.00 0.00 38 1011.1
20260509181935 74 0 0.0 2.6 0.00 0.00 0.00 38 1011.1
20260509180630 74 0 0.0 2.6 0.00 0.00 0.00 38 1011.1
20260509175306 74 180 1.7 7.8 0.00 0.00 0.00 32 1011.3
20260509174000 74 180 1.7 7.8 0.00 0.00 0.00 32 1011.3
20260509172542 73 135 1.7 7.8 0.00 0.00 0.00 33 1011.4
20260509171145 73 135 1.7 7.8 0.00 0.00 0.00 33 1011.4
20260509165913 72 45 5.2 9.6 0.00 0.00 0.00 36 1011.6
20260509164500 72 45 5.2 9.6 0.00 0.00 0.00 36 1011.6
20260509163110 73 90 5.2 9.6 0.00 0.00 0.00 32 1011.9
20260509161755 73 90 5.2 9.6 0.00 0.00 0.00 32 1011.9
20260509160500 73 45 3.5 9.6 0.00 0.00 0.00 29 1012.4
20260509155152 73 45 3.5 9.6 0.00 0.00 0.00 29 1012.4
20260509153917 73 45 3.5 9.6 0.00 0.00 0.00 29 1012.4
20260509152619 73 135 3.5 9.6 0.00 0.00 0.00 28 1012.8
20260509151212 73 135 3.5 9.6 0.00 0.00 0.00 28 1012.8
20260509145828 71 90 5.2 9.6 0.00 0.00 0.00 33 1013.2
20260509144510 71 90 5.2 9.6 0.00 0.00 0.00 33 1013.2
20260509143105 71 90 3.5 8.7 0.00 0.00 0.00 32 1013.7
20260509141800 71 90 3.5 8.7 0.00 0.00 0.00 32 1013.7
20260509140420 70 90 6.1 10.4 0.00 0.00 0.00 38 1014.0
20260509135215 70 90 6.1 10.4 0.00 0.00 0.00 38 1014.0
20260509133920 70 90 6.1 10.4 0.00 0.00 0.00 38 1014.0
20260509132645 70 90 6.1 9.6 0.00 0.00 0.00 40 1014.3
20260509131245 70 90 6.1 9.6 0.00 0.00 0.00 40 1014.3
20260509130010 70 45 5.2 9.6 0.00 0.00 0.00 44 1014.7
20260509124650 70 45 5.2 9.6 0.00 0.00 0.00 44 1014.7
20260509123220 70 135 3.5 7.8 0.00 0.00 0.00 48 1015.0
20260509121915 70 135 3.5 7.8 0.00 0.00 0.00 48 1015.0
20260509120547 65 180 1.7 6.1 0.00 0.00 0.00 57 1016.3
20260509115055 65 180 1.7 6.1 0.00 0.00 0.00 57 1016.3
20260509113825 65 180 1.7 6.1 0.00 0.00 0.00 57 1016.3
20260509112400 65 180 1.7 6.1 0.00 0.00 0.00 57 1016.3
20260509110955 65 180 1.7 6.1 0.00 0.00 0.00 57 1016.3
20260509105605 65 180 1.7 6.1 0.00 0.00 0.00 57 1016.3
20260509104258 65 180 1.7 6.1 0.00 0.00 0.00 57 1016.3
20260509102920 65 270 1.7 6.1 0.00 0.00 0.00 62 1016.5
20260509101505 65 270 1.7 6.1 0.00 0.00 0.00 62 1016.5
20260509100150 63 270 2.6 7.0 0.00 0.00 0.00 62 1016.9
20260509094740 63 270 2.6 7.0 0.00 0.00 0.00 62 1016.9
20260509093336 60 270 2.6 7.0 0.00 0.00 0.00 65 1017.3
20260509091907 60 270 2.6 7.0 0.00 0.00 0.00 65 1017.3
20260509090557 60 270 3.5 6.1 0.00 0.00 0.00 70 1017.6
20260509085125 60 270 3.5 6.1 0.00 0.00 0.00 70 1017.6
20260509083641 60 270 3.5 6.1 0.00 0.00 0.00 70 1017.6
20260509082350 57 270 2.6 6.1 0.00 0.00 0.00 74 1017.7
20260509080925 57 270 2.6 6.1 0.00 0.00 0.00 74 1017.7
20260509075540 57 270 2.6 5.2 0.00 0.00 0.00 78 1017.6
20260509074118 57 270 2.6 5.2 0.00 0.00 0.00 78 1017.6
20260509072747 56 315 1.7 3.5 0.00 0.00 0.00 79 1017.4
20260509071543 56 315 1.7 3.5 0.00 0.00 0.00 79 1017.4
20260509070210 55 225 0.9 1.7 0.00 0.00 0.00 79 1017.6
20260509065000 55 225 0.9 1.7 0.00 0.00 0.00 79 1017.6
20260509063654 55 225 0.9 1.7 0.00 0.00 0.00 79 1017.6
20260509062415 52 45 1.7 1.7 0.00 0.04 0.00 90 1017.5
20260509061030 52 45 1.7 1.7 0.00 0.04 0.00 90 1017.5
20260509055815 50 90 0.9 3.5 0.00 0.04 0.00 98 1017.5
20260509054347 50 90 0.9 3.5 0.00 0.04 0.00 98 1017.5
20260509053105 49 0 0.9 3.5 0.00 0.04 0.00 96 1017.3
20260509051835 49 0 0.9 3.5 0.00 0.04 0.00 96 1017.3
20260509050405 51 0 1.7 5.2 0.00 0.04 0.00 96 1017.3
20260509045115 51 0 1.7 5.2 0.00 0.04 0.00 96 1017.3
20260509043805 51 0 1.7 5.2 0.00 0.04 0.00 96 1017.3
20260509042420 51 315 3.5 5.2 0.00 0.04 0.00 96 1017.3
20260509041035 51 315 3.5 5.2 0.00 0.04 0.00 96 1017.3
20260509035712 51 0 3.5 5.2 0.00 0.04 0.00 97 1017.4
20260509034405 51 0 3.5 5.2 0.00 0.04 0.00 97 1017.4
20260509033034 51 315 1.7 3.5 0.00 0.04 0.00 98 1017.2
20260509031625 51 315 1.7 3.5 0.00 0.04 0.00 98 1017.2
20260509030355 51 0 2.6 3.5 0.00 0.04 0.00 97 1017.1
20260509025035 51 0 2.6 3.5 0.00 0.04 0.00 97 1017.1
20260509023655 51 0 2.6 3.5 0.00 0.04 0.00 97 1017.1
20260509022306 51 0 2.6 3.5 0.00 0.04 0.00 98 1017.0
20260509021026 51 0 2.6 3.5 0.00 0.04 0.00 98 1017.0
20260509015703 50 315 1.7 5.2 0.00 0.04 0.00 96 1017.1
20260509014355 50 315 1.7 5.2 0.00 0.04 0.00 96 1017.1
20260509013040 51 315 1.7 3.5 0.00 0.04 0.00 94 1016.8
20260509011715 51 315 1.7 3.5 0.00 0.04 0.00 94 1016.8
20260509010344 53 315 4.3 7.8 0.00 0.04 0.00 91 1016.8
20260509004905 53 315 4.3 7.8 0.00 0.04 0.00 91 1016.8
20260509003615 53 315 4.3 7.8 0.00 0.04 0.00 91 1016.8
20260509002300 54 315 2.6 6.1 0.00 0.04 0.04 84 1016.6
20260509000955 54 315 2.6 6.1 0.00 0.04 0.04 84 1016.6
20260508235500 55 0 6.1 15.6 0.00 0.04 0.04 82 1017.3
20260508234042 55 0 6.1 15.6 0.00 0.04 0.04 82 1017.3
20260508232633 55 0 9.6 14.8 0.00 0.03 0.03 84 1017.2
20260508231209 55 0 9.6 14.8 0.00 0.03 0.03 84 1017.2
20260508225840 56 270 9.6 19.1 0.03 0.03 0.03 80 1017.1
20260508224439 56 270 9.6 19.1 0.03 0.03 0.03 80 1017.1
20260508223101 60 270 5.2 9.6 0.00 0.00 0.00 65 1016.4
20260508221745 60 270 5.2 9.6 0.00 0.00 0.00 65 1016.4
20260508220440 57 315 3.5 7.8 0.00 0.00 0.00 68 1015.9
20260508215110 57 315 3.5 7.8 0.00 0.00 0.00 68 1015.9
20260508213724 57 315 3.5 7.8 0.00 0.00 0.00 68 1015.9
20260508212320 60 0 5.2 7.8 0.00 0.00 0.00 59 1015.2
20260508210955 60 0 5.2 7.8 0.00 0.00 0.00 59 1015.2
20260508205533 61 45 5.2 9.6 0.00 0.00 0.00 58 1014.9
20260508204320 61 45 5.2 9.6 0.00 0.00 0.00 58 1014.9